{"data":{"norad_id":66446,"intl_designator":"2025-259AA","name":"STARLINK-34986","alt_names":[],"object_type":"PAYLOAD","status":"ACTIVE","operator":null,"country":"US","launch_date":"2025-11-11","launch_site_code":"AFETR","launch_vehicle":null,"mission":null,"orbit_class":"UNKNOWN","rcs_meters":null,"size_class":null,"mass_kg":null,"dimensions":null,"purposes":["comms"],"wikipedia_slug":null,"has_3d_model":false,"image_url":null,"decayed_at":null,"tle_current":{"epoch":"2026-09-20T07:32:27.983328Z","epoch_age_seconds":109475,"freshness":"FRESH","line1":"1 66446U 25259AA  26263.31421277  .00014768  00000+0  54499-3 0  9994","line2":"2 66446  43.0038 255.4646 0002276 290.5422  69.5186 15.27585521 49255","mean_motion":15.27585521,"eccentricity":0.0002276,"inclination_deg":43.0038,"raan_deg":255.4646,"arg_perigee_deg":290.5422,"mean_anomaly_deg":69.5186,"bstar":0.00054499,"rev_number":4925,"period_min":94.266408014743,"perigee_km":481.47096203646,"apogee_km":484.59416642209,"semimajor_km":6861.1695642293,"source":"CELESTRAK","updated_at":"2026-09-21T09:00:35.911086Z"}}}